STARLINK-5187, 54065

Orbit data source: Space-Track

STARLINK-5187, 54065 is a payload satellite owned by SpaceX/Seattle (US) in LEO that was launched on Thu, 20 Oct 2022 UTC via an FALCON 9 launch vehicle from the Air Force Eastern Test Range (AFETR). Payload-class satellites include a variety of spacecraft equipped with specific instruments for various scientific and technological missions. These include communications satellites like Starlink; space stations such as the ISS; scientific satellites like the Hubble; Earth observation satellites from companies like Planet Labs, Umbra, and HawkEye 360; GPS; miniature CubeSats for education and research; and military/defense satellites.

Loading next visibility...
Identifier
54065, 2022-136Q
Orbit
LEO
Country
Flag of USUS
Related business
Manufacturer
SpaceX/Seattle
Mission
Operational Commercial Communications
Bus & Motor
STARLINK, Unknown motor
Mass
305 kg wet, ~290 kg dry
Launch date (UTC)
2022-10-20 (4 years ago)
Launch vehicle
FALCON 9
Launch site
Air Force Eastern Test Range (AFETR)
Object type
Payload
Rocket body
Debris
Shape & HBR
Box + 1 Pan, 10.1 m
Radar Cross Section
13.562 m², Large (>1 m²)

Expand to show TLE details & history
Last TLE update: 2 days ago

TLE from 2 days ago
0 STARLINK-5187
1 54065U 22136Q   26171.47831691  .00000220  00000-0  31888-4 0  9996
2 54065  53.1603 242.4199 0001024  84.3619 275.7489 15.08832088202367
Epoch: 2026-06-20T11:28Z
TLE epoch observation values (Epoch: 2026-06-20T11:28:46.581Z)
Latitude
-0.00001°
Longitude
161.53344°
Altitude
540.588 km
Speed
7.593 km/s
True Right ascension
16h 09m 40s
True Declination
0° 00' 00"
Sunlit
Object was in full shadow at epoch
Visualization orbit readout
Latitude
Unknown
Longitude
Unknown
Altitude
Unknown
Speed
Unknown
Apparent Right ascension
Unknown
Apparent Declination
Unknown
Sunlit
N/A
Visualization observer readout
Local Sidereal Time
21:36:52
Azimuth
Unknown
Elevation
Unknown
Doppler factor
Unknown
Orbital elements
Apogee altitude
540.73 km
Perigee altitude
539.313 km
Semi-major axis
6,918.159 km
Eccentricity
0.0001
Inclination
53.1603°
RAAN
242.4199°
Arg. of periapsis
84.3619°
True anomaly
275.73722°
Mean anomaly
275.7489°
Eccentric anomaly
275.74306°
Mean motion
3.77188 °/min
Orbital period
95.44 mins
BSTAR
0.000031888
Loading maneuver chart data...
Computing Atmospheric mass density...
Loading historical data...
Loading historical data...
Loading historical data...
Loading historical data...
Loading historical data...
Loading historical data...
Loading historical data...

Documentation

Showing up to 5 results
|